Regional Weather Roundup
Issued by NWS

Home | Current Version | Previous Version | Text Only | Print | Product List | Glossary Off
Versions: 1 2 3 4 5 6 7 8 9 10 11 12 13 14 15 16 17 18 19 20 21 22 23 24 25 26 27 28 29 30 31 32 33 34 35 36 37 38 39 40 41 42 43 44 45 46 47 48 49 50

000
ASUS43 KLMK 241010
RWRKY
KENTUCKY REGIONAL WEATHER ROUNDUP
NATIONAL WEATHER SERVICE LOUISVILLE KY
500 AM EST MON NOV 24 2014

NOTE "FAIR" INDICATES FEW OR NO CLOUDS BELOW 12,000 FEET
WITH NO SIGNIFICANT WEATHER AND/OR OBSTRUCTIONS TO VISIBILITY.

KYZ001>023-026-027-061>063-070>075-241100-
WESTERN AND SOUTH CENTRAL KENTUCKY

CITY           SKY/WX    TMP DP  RH WIND       PRES   REMARKS
PADUCAH        CLOUDY    60  53  77 SW23G33   29.32R
HENDERSON      CLOUDY    61  54  77 S21G38    29.27S
OWENSBORO      PTCLDY    60  56  87 MISG      29.30F
HOPKINSVILLE   MOCLDY    61  56  81 S24G35    29.40R
BOWLING GREEN  MOCLDY    62  54  74 S16       29.41F
GLASGOW        MOCLDY    61  53  76 S17G29    29.42F
$$

KYZ024-025-028>034-038-045-046-053-241100-
NORTH CENTRAL KENTUCKY

CITY           SKY/WX    TMP DP  RH WIND       PRES   REMARKS
LOUISVILLE/SDF MOCLDY    62  55  77 S18G25    29.33F
LOUISVILLE/LOU MOCLDY    62  55  77 S13G26    29.33F
FORT KNOX      MOCLDY    61  55  82 S21G28    29.33F
$$

KYZ035>037-039>044-047>052-055>060-089>105-241100-
NORTHEAST KENTUCKY

CITY           SKY/WX    TMP DP  RH WIND       PRES   REMARKS
LEXINGTON      CLOUDY    60  55  83 S17       29.42S
COVINGTON      CLOUDY    60  53  77 S14       29.34S
FRANKFORT      CLOUDY    60  55  83 S14G24    29.38F
$$

KYZ054-064>069-076>088-106>120-241100-
SOUTHEAST KENTUCKY

CITY           SKY/WX    TMP DP  RH WIND       PRES   REMARKS
JACKSON        MOCLDY    61  51  70 VRB6      29.51S
LONDON         MOCLDY    63  49  60 S15G28    29.52F
SOMERSET       CLOUDY    59  52  77 S10G17    29.52R
MIDDLESBORO    CLOUDY    61  53  76 S8G23     29.60R
MONTICELLO     PTSUNNY   63  54  72 S18G25    29.53S
$$




USA.gov is the U.S. government's official web portal to all federal, state and local government web resources and services.